Hourly Data Report for June 28, 2017

TORONTO CITY
ONTARIO

43°40'00.000" N
79°24'00.000" W
112.50 m
6158355
71508
XTO

Download Data

Hourly Data (June 2017)
Hourly Data Report for June 28, 2017
TIME
LST
Temp Definition
°C
Dew Point Definition
°C
Rel Hum Definition
%
Precip. Amount Definition
mm

Wind Dir Definition
10's deg

Wind Spd Definition
km/h
Visibility Definition
km
Stn Press Definition
kPa
Hmdx Definition


Wind Chill Definition


Weather Definition


00:00 14.3 7.4 64 0.0 LegendMM LegendMM   100.30     LegendNANA
01:00 13.4 7.5 68 0.0 LegendMM LegendMM   100.31     LegendNANA
02:00 13.6 8.5 71 0.0 LegendMM LegendMM   100.30     LegendNANA
03:00 13.2 9.1 76 0.0 LegendMM LegendMM   100.30     LegendNANA
04:00 12.8 9.1 78 0.0 LegendMM LegendMM   100.34     LegendNANA
05:00 12.5 9.1 80 0.0 LegendMM LegendMM   100.37     LegendNANA
06:00 13.4 10.1 81 0.0 LegendMM LegendMM   100.41     LegendNANA
07:00 16.2 10.0 66 0.0 LegendMM LegendMM   100.39     LegendNANA
08:00 18.6 11.1 61 0.0 LegendMM LegendMM   100.46     LegendNANA
09:00 20.0 11.1 56 0.0 LegendMM LegendMM   100.49     LegendNANA
10:00 20.8 10.9 53 0.0 LegendMM LegendMM   100.50     LegendNANA
11:00 22.4 9.9 45 0.0 LegendMM LegendMM   100.47     LegendNANA
12:00 23.3 10.2 43 0.0 LegendMM LegendMM   100.45 25   LegendNANA
13:00 22.1 9.0 43 0.0 LegendMM LegendMM   100.46     LegendNANA
14:00 23.5 10.3 43 0.0 LegendMM LegendMM   100.41 25   LegendNANA
15:00 23.9 9.8 41 0.0 LegendMM LegendMM   100.34 25   LegendNANA
16:00 23.0 11.5 48 0.0 LegendMM LegendMM   100.31 25   LegendNANA
17:00 21.3 11.1 52 0.0 LegendMM LegendMM   100.27     LegendNANA
18:00 20.3 11.0 55 0.0 LegendMM LegendMM   100.23     LegendNANA
19:00 19.6 10.1 54 0.0 LegendMM LegendMM   100.21     LegendNANA
20:00 19.5 9.5 52 0.0 LegendMM LegendMM   100.20     LegendNANA
21:00 18.9 8.4 51 0.0 LegendMM LegendMM   100.23     LegendNANA
22:00 18.7 10.8 60 0.0 LegendMM LegendMM   100.21     LegendNANA
23:00 17.8 10.2 61 0.0 LegendMM LegendMM   100.23     LegendNANA

Notes on Data Quality.

Legend

  • E = Estimated
  • M = Missing
  • NA = Not Available*
  • [empty] = Indicates an unobserved value
Date modified: